STARLINK-37799, 69317

Orbit data source: Space-Track

STARLINK-37799, 69317 is a payload satellite owned by SpaceX/Seattle (US) in SSO that was launched on Sat, 30 May 2026 UTC via an FALCON 9 launch vehicle from the Air Force Western Test Range (AFWTR). Payload-class satellites include a variety of spacecraft equipped with specific instruments for various scientific and technological missions. These include communications satellites like Starlink; space stations such as the ISS; scientific satellites like the Hubble; Earth observation satellites from companies like Planet Labs, Umbra, and HawkEye 360; GPS; miniature CubeSats for education and research; and military/defense satellites.

Loading next visibility...
Identifier
69317, 2026-119X
Orbit
SSO
Country
Flag of USUS
Related business
Manufacturer
SpaceX/Seattle
Mission
Operational Commercial Communications
Bus & Motor
STARLINK V2MO, Unknown motor
Mass
575 kg wet, ~530 kg dry
Launch date (UTC)
2026-05-30 (3 months ago)
Launch vehicle
FALCON 9
Launch site
Air Force Western Test Range (AFWTR)
Object type
Payload
Rocket body
Debris
Shape & HBR
Box + 1 Pan, 17.7 m
Radar Cross Section
41.120 m², Large (>1 m²)

Expand to show TLE details & history
Last TLE update: 14 hours ago

TLE from 14 hours ago
0 STARLINK-37799
1 69317U 26119X   26255.64281055  .00012809  00000-0  39839-3 0  9991
2 69317  97.2823 280.5571 0001155 111.5029 248.6337 15.33447748 16217
Epoch: 2026-09-12T15:25Z
TLE epoch observation values (Epoch: 2026-09-12T15:25:38.831Z)
Latitude
-0.00002°
Longitude
57.49643°
Altitude
468.935 km
Speed
7.632 km/s
True Right ascension
18h 42m 13s
True Declination
0° 00' 00"
Sunlit
Object was in daylight at epoch
Visualization orbit readout
Latitude
Unknown
Longitude
Unknown
Altitude
Unknown
Speed
Unknown
Apparent Right ascension
Unknown
Apparent Declination
Unknown
Sunlit
N/A
Visualization observer readout
Local Sidereal Time
21:51:00
Azimuth
Unknown
Elevation
Unknown
Doppler factor
Unknown
Orbital elements
Apogee altitude
463.268 km
Perigee altitude
461.688 km
Semi-major axis
6,840.615 km
Eccentricity
0.00012
Inclination
97.2823°
RAAN
280.5571°
Arg. of periapsis
111.5029°
True anomaly
248.62137°
Mean anomaly
248.6337°
Eccentric anomaly
248.62754°
Mean motion
3.83619 °/min
Orbital period
93.84 mins
BSTAR
0.00039839
Loading maneuver chart data...
Computing Atmospheric mass density...
Loading historical data...
Loading historical data...
Loading historical data...
Loading historical data...
Loading historical data...
Loading historical data...
Loading historical data...

Documentation

Showing up to 5 results
|